Time,TemperatureF,DewpointF,PressureIn,WindDirection,WindDirectionDegrees,WindSpeedMPH,WindSpeedGustMPH,Humidity,HourlyPrecipIn,Conditions,Clouds,dailyrainin,SoftwareType,DateUTC
2013-09-13 00:11:00,65.3,65.0,29.66,WNW,296,7.0,8.0,98,0.02,,,0.02,weatherlink.com 1.10,2013-09-13 04:11:00,
2013-09-13 00:26:00,63.2,62.0,29.65,ESE,117,8.0,12.0,97,0.03,,,0.03,weatherlink.com 1.10,2013-09-13 04:26:00,
2013-09-13 00:41:00,62.6,62.0,29.66,SSE,161,0.0,8.0,98,0.03,,,0.03,weatherlink.com 1.10,2013-09-13 04:41:00,
2013-09-13 00:56:00,62.8,62.0,29.67,SSW,207,0.0,3.0,98,0.04,,,0.04,weatherlink.com 1.10,2013-09-13 04:56:00,
2013-09-13 01:11:00,63.0,63.0,29.66,West,275,5.0,7.0,99,0.02,,,0.04,weatherlink.com 1.10,2013-09-13 05:11:00,
2013-09-13 01:27:00,63.1,63.0,29.65,East,85,0.0,3.0,99,0.02,,,0.05,weatherlink.com 1.10,2013-09-13 05:27:00,
2013-09-13 01:42:00,63.6,63.0,29.66,WNW,287,5.0,7.0,99,0.16,,,0.19,weatherlink.com 1.10,2013-09-13 05:42:00,
2013-09-13 01:57:00,64.3,64.0,29.63,SW,225,0.0,0.0,99,0.24,,,0.28,weatherlink.com 1.10,2013-09-13 05:57:00,
2013-09-13 02:12:00,63.7,64.0,29.63,SE,132,0.0,6.0,99,0.26,,,0.30,weatherlink.com 1.10,2013-09-13 06:12:00,
2013-09-13 02:27:00,63.8,64.0,29.62,SE,132,0.0,0.0,99,0.26,,,0.31,weatherlink.com 1.10,2013-09-13 06:27:00,
2013-09-13 02:42:00,62.1,62.0,29.61,East,99,5.0,8.0,98,0.11,,,0.31,weatherlink.com 1.10,2013-09-13 06:42:00,
2013-09-13 02:57:00,62.2,62.0,29.61,East,92,0.0,2.0,99,0.02,,,0.31,weatherlink.com 1.10,2013-09-13 06:57:00,
2013-09-13 03:12:00,62.0,62.0,29.60,East,86,0.0,5.0,99,0.01,,,0.31,weatherlink.com 1.10,2013-09-13 07:12:00,
2013-09-13 03:27:00,62.3,62.0,29.60,East,86,0.0,0.0,99,0.00,,,0.31,weatherlink.com 1.10,2013-09-13 07:27:00,
2013-09-13 03:42:00,61.6,61.0,29.60,East,88,2.0,3.0,99,0.00,,,0.31,weatherlink.com 1.10,2013-09-13 07:42:00,
2013-09-13 03:57:00,61.7,62.0,29.62,NE,47,0.0,0.0,99,0.00,,,0.31,weatherlink.com 1.10,2013-09-13 07:57:00,
2013-09-13 04:12:00,62.5,62.0,29.63,NW,317,2.0,4.0,99,0.00,,,0.31,weatherlink.com 1.10,2013-09-13 08:12:00,
2013-09-13 04:27:00,63.2,63.0,29.63,WNW,284,2.0,4.0,100,0.00,,,0.31,weatherlink.com 1.10,2013-09-13 08:27:00,
2013-09-13 04:42:00,63.6,63.0,29.63,WNW,284,0.0,0.0,99,0.00,,,0.31,weatherlink.com 1.10,2013-09-13 08:42:00,
2013-09-13 04:57:00,63.8,64.0,29.62,WNW,284,0.0,0.0,100,0.00,,,0.31,weatherlink.com 1.10,2013-09-13 08:57:00,
2013-09-13 05:12:00,62.7,63.0,29.62,East,80,0.0,0.0,99,0.00,,,0.31,weatherlink.com 1.10,2013-09-13 09:12:00,
2013-09-13 05:27:00,62.8,63.0,29.62,East,80,0.0,0.0,99,0.00,,,0.31,weatherlink.com 1.10,2013-09-13 09:27:00,
2013-09-13 05:42:00,64.1,64.0,29.62,NW,310,3.0,5.0,100,0.01,,,0.32,weatherlink.com 1.10,2013-09-13 09:42:00,
2013-09-13 05:57:00,64.4,64.0,29.62,West,281,2.0,6.0,100,0.01,,,0.32,weatherlink.com 1.10,2013-09-13 09:57:00,
2013-09-13 06:12:00,64.4,64.0,29.63,West,275,3.0,4.0,99,0.01,,,0.32,weatherlink.com 1.10,2013-09-13 10:12:00,
2013-09-13 06:27:00,64.4,64.0,29.63,West,273,3.0,4.0,99,0.01,,,0.32,weatherlink.com 1.10,2013-09-13 10:27:00,
2013-09-13 06:42:00,64.4,64.0,29.63,West,273,0.0,0.0,99,0.00,,,0.32,weatherlink.com 1.10,2013-09-13 10:42:00,
2013-09-13 06:57:00,62.8,62.0,29.63,SE,133,3.0,4.0,98,0.00,,,0.32,weatherlink.com 1.10,2013-09-13 10:57:00,
2013-09-13 07:12:00,61.9,62.0,29.63,ESE,115,0.0,3.0,99,0.00,,,0.32,weatherlink.com 1.10,2013-09-13 11:12:00,
2013-09-13 07:27:00,62.0,62.0,29.64,ESE,115,1.0,3.0,99,0.00,,,0.32,weatherlink.com 1.10,2013-09-13 11:27:00,
2013-09-13 07:42:00,62.4,62.0,29.63,ESE,115,0.0,0.0,99,0.00,,,0.32,weatherlink.com 1.10,2013-09-13 11:42:00,
2013-09-13 07:57:00,62.5,62.0,29.64,ESE,115,0.0,0.0,99,0.00,,,0.32,weatherlink.com 1.10,2013-09-13 11:57:00,
2013-09-13 08:12:00,63.0,63.0,29.64,ESE,115,0.0,0.0,99,0.00,,,0.32,weatherlink.com 1.10,2013-09-13 12:12:00,
2013-09-13 08:27:00,63.5,63.0,29.64,ESE,115,0.0,0.0,99,0.01,,,0.33,weatherlink.com 1.10,2013-09-13 12:27:00,
2013-09-13 08:42:00,62.7,63.0,29.64,ESE,115,0.0,0.0,99,0.02,,,0.34,weatherlink.com 1.10,2013-09-13 12:42:00,
2013-09-13 08:57:00,62.4,62.0,29.65,ESE,115,0.0,2.0,99,0.03,,,0.35,weatherlink.com 1.10,2013-09-13 12:57:00,
2013-09-13 09:12:00,62.0,62.0,29.65,ESE,115,0.0,4.0,99,0.04,,,0.36,weatherlink.com 1.10,2013-09-13 13:12:00,
2013-09-13 09:27:00,62.6,62.0,29.65,ESE,115,0.0,3.0,99,0.05,,,0.38,weatherlink.com 1.10,2013-09-13 13:27:00,
2013-09-13 09:42:00,62.9,63.0,29.65,ESE,115,2.0,3.0,99,0.06,,,0.40,weatherlink.com 1.10,2013-09-13 13:42:00,
2013-09-13 09:57:00,62.7,63.0,29.65,ESE,113,3.0,4.0,99,0.08,,,0.43,weatherlink.com 1.10,2013-09-13 13:57:00,
2013-09-13 10:12:00,62.7,63.0,29.65,ESE,113,1.0,3.0,99,0.11,,,0.47,weatherlink.com 1.10,2013-09-13 14:12:00,
2013-09-13 10:27:00,62.6,62.0,29.65,ESE,113,0.0,2.0,99,0.13,,,0.51,weatherlink.com 1.10,2013-09-13 14:27:00,
2013-09-13 10:42:00,62.5,62.0,29.64,ESE,113,0.0,0.0,99,0.14,,,0.54,weatherlink.com 1.10,2013-09-13 14:42:00,
2013-09-13 10:57:00,62.5,62.0,29.64,ESE,113,2.0,3.0,99,0.13,,,0.56,weatherlink.com 1.10,2013-09-13 14:57:00,
2013-09-13 11:12:00,62.1,62.0,29.64,ESE,113,3.0,5.0,99,0.10,,,0.57,weatherlink.com 1.10,2013-09-13 15:12:00,
2013-09-13 11:27:00,61.8,62.0,29.64,ESE,113,1.0,3.0,99,0.07,,,0.58,weatherlink.com 1.10,2013-09-13 15:27:00,
2013-09-13 11:42:00,61.8,62.0,29.64,ESE,113,2.0,4.0,99,0.06,,,0.60,weatherlink.com 1.10,2013-09-13 15:42:00,
2013-09-13 11:57:00,62.5,63.0,29.62,ESE,123,3.0,4.0,100,0.06,,,0.62,weatherlink.com 1.10,2013-09-13 15:57:00,
2013-09-13 12:12:00,62.9,63.0,29.63,ESE,115,3.0,3.0,100,0.06,,,0.63,weatherlink.com 1.10,2013-09-13 16:12:00,
2013-09-13 12:27:00,62.9,63.0,29.63,SE,128,3.0,5.0,99,0.06,,,0.64,weatherlink.com 1.10,2013-09-13 16:27:00,
2013-09-13 12:42:00,62.8,63.0,29.62,SE,127,2.0,4.0,99,0.04,,,0.64,weatherlink.com 1.10,2013-09-13 16:42:00,
2013-09-13 12:57:00,63.2,63.0,29.61,ESE,109,4.0,8.0,99,0.02,,,0.64,weatherlink.com 1.10,2013-09-13 16:57:00,
2013-09-13 13:12:00,63.3,63.0,29.61,East,101,6.0,8.0,99,0.01,,,0.64,weatherlink.com 1.10,2013-09-13 17:12:00,
2013-09-13 13:27:00,63.2,63.0,29.61,East,101,2.0,3.0,99,0.00,,,0.64,weatherlink.com 1.10,2013-09-13 17:27:00,
2013-09-13 13:42:00,63.6,63.0,29.61,East,101,3.0,5.0,99,0.00,,,0.64,weatherlink.com 1.10,2013-09-13 17:42:00,
2013-09-13 13:57:00,63.7,64.0,29.60,ESE,108,0.0,4.0,99,0.00,,,0.64,weatherlink.com 1.10,2013-09-13 17:57:00,
2013-09-13 14:12:00,64.5,64.0,29.60,ESE,108,2.0,4.0,99,0.00,,,0.64,weatherlink.com 1.10,2013-09-13 18:12:00,
2013-09-13 14:27:00,65.0,65.0,29.59,ESE,109,0.0,4.0,98,0.00,,,0.64,weatherlink.com 1.10,2013-09-13 18:27:00,
2013-09-13 14:42:00,65.5,65.0,29.59,ENE,71,2.0,4.0,97,0.00,,,0.64,weatherlink.com 1.10,2013-09-13 18:42:00,
2013-09-13 14:57:00,66.5,65.0,29.59,ENE,66,2.0,6.0,96,0.00,,,0.64,weatherlink.com 1.10,2013-09-13 18:57:00,
2013-09-13 15:12:00,66.7,65.0,29.59,East,90,2.0,5.0,95,0.00,,,0.64,weatherlink.com 1.10,2013-09-13 19:12:00,
2013-09-13 15:27:00,66.4,65.0,29.59,NE,53,2.0,5.0,94,0.00,,,0.64,weatherlink.com 1.10,2013-09-13 19:27:00,
2013-09-13 15:42:00,66.8,65.0,29.59,East,90,2.0,5.0,93,0.00,,,0.64,weatherlink.com 1.10,2013-09-13 19:42:00,
2013-09-13 15:57:00,66.9,65.0,29.59,East,82,0.0,4.0,93,0.00,,,0.64,weatherlink.com 1.10,2013-09-13 19:57:00,
2013-09-13 16:12:00,67.2,65.0,29.59,ENE,75,0.0,7.0,93,0.00,,,0.64,weatherlink.com 1.10,2013-09-13 20:12:00,
2013-09-13 16:27:00,67.0,65.0,29.59,ENE,72,2.0,5.0,92,0.00,,,0.64,weatherlink.com 1.10,2013-09-13 20:27:00,
2013-09-13 16:42:00,66.9,64.0,29.59,ENE,78,3.0,4.0,91,0.00,,,0.64,weatherlink.com 1.10,2013-09-13 20:42:00,
2013-09-13 16:57:00,66.6,64.0,29.59,ENE,66,0.0,6.0,92,0.00,,,0.64,weatherlink.com 1.10,2013-09-13 20:57:00,
2013-09-13 17:12:00,66.7,64.0,29.60,East,86,3.0,6.0,92,0.00,,,0.64,weatherlink.com 1.10,2013-09-13 21:12:00,
2013-09-13 17:27:00,66.3,64.0,29.59,NE,40,0.0,8.0,92,0.00,,,0.64,weatherlink.com 1.10,2013-09-13 21:27:00,
2013-09-13 17:42:00,65.9,64.0,29.59,East,94,0.0,2.0,93,0.00,,,0.64,weatherlink.com 1.10,2013-09-13 21:42:00,
2013-09-13 17:57:00,65.4,63.0,29.60,ENE,68,0.0,3.0,93,0.00,,,0.64,weatherlink.com 1.10,2013-09-13 21:57:00,
2013-09-13 18:12:00,65.4,64.0,29.60,NNE,17,0.0,3.0,94,0.00,,,0.64,weatherlink.com 1.10,2013-09-13 22:12:00,
2013-09-13 18:27:00,65.4,64.0,29.60,NE,53,0.0,2.0,94,0.00,,,0.64,weatherlink.com 1.10,2013-09-13 22:27:00,
2013-09-13 18:42:00,65.2,64.0,29.60,NE,53,0.0,0.0,94,0.00,,,0.64,weatherlink.com 1.10,2013-09-13 22:42:00,
2013-09-13 18:57:00,65.1,64.0,29.61,NE,53,0.0,0.0,95,0.00,,,0.64,weatherlink.com 1.10,2013-09-13 22:57:00,
2013-09-13 19:27:00,65.2,64.0,29.62,West,281,7.0,8.0,96,0.02,,,0.66,weatherlink.com 1.10,2013-09-13 23:27:00,
2013-09-13 19:42:00,64.9,64.0,29.63,West,264,6.0,10.0,96,0.04,,,0.68,weatherlink.com 1.10,2013-09-13 23:42:00,
2013-09-13 19:57:00,64.6,64.0,29.64,WNW,290,7.0,11.0,96,0.05,,,0.69,weatherlink.com 1.10,2013-09-13 23:57:00,
2013-09-13 20:12:00,64.3,64.0,29.64,WNW,289,8.0,13.0,97,0.08,,,0.72,weatherlink.com 1.10,2013-09-14 00:12:00,
2013-09-13 20:27:00,64.1,63.0,29.65,NW,306,10.0,15.0,96,0.07,,,0.73,weatherlink.com 1.10,2013-09-14 00:27:00,
2013-09-13 20:42:00,64.0,63.0,29.66,WNW,286,13.0,17.0,95,0.06,,,0.74,weatherlink.com 1.10,2013-09-14 00:42:00,
2013-09-13 20:58:00,63.7,63.0,29.67,WNW,302,11.0,15.0,96,0.06,,,0.75,weatherlink.com 1.10,2013-09-14 00:58:00,
2013-09-13 21:13:00,63.2,62.0,29.67,West,275,8.0,15.0,96,0.06,,,0.78,weatherlink.com 1.10,2013-09-14 01:13:00,
2013-09-13 21:28:00,63.0,62.0,29.68,NNW,348,4.0,16.0,95,0.07,,,0.80,weatherlink.com 1.10,2013-09-14 01:28:00,
2013-09-13 21:43:00,62.9,61.0,29.67,NNW,330,9.0,13.0,93,0.07,,,0.81,weatherlink.com 1.10,2013-09-14 01:43:00,
2013-09-13 21:58:00,62.8,61.0,29.66,East,84,3.0,16.0,93,0.07,,,0.82,weatherlink.com 1.10,2013-09-14 01:58:00,
2013-09-13 22:13:00,62.3,61.0,29.65,ESE,105,3.0,8.0,94,0.04,,,0.82,weatherlink.com 1.10,2013-09-14 02:13:00,
2013-09-13 22:28:00,62.0,60.0,29.66,SSW,193,3.0,7.0,94,0.02,,,0.82,weatherlink.com 1.10,2013-09-14 02:28:00,
2013-09-13 22:43:00,62.1,60.0,29.67,North,355,2.0,9.0,93,0.01,,,0.82,weatherlink.com 1.10,2013-09-14 02:43:00,
2013-09-13 22:58:00,61.8,60.0,29.68,NNW,335,0.0,5.0,93,0.00,,,0.82,weatherlink.com 1.10,2013-09-14 02:58:00,
2013-09-13 23:13:00,61.8,60.0,29.69,WNW,284,2.0,11.0,93,0.00,,,0.82,weatherlink.com 1.10,2013-09-14 03:13:00,
2013-09-13 23:28:00,61.5,60.0,29.69,NW,304,3.0,9.0,94,0.00,,,0.82,weatherlink.com 1.10,2013-09-14 03:28:00,
2013-09-13 23:43:00,61.4,59.0,29.69,NW,304,5.0,9.0,93,0.00,,,0.82,weatherlink.com 1.10,2013-09-14 03:43:00,
2013-09-13 23:58:00,61.5,60.0,29.69,NW,317,8.0,10.0,93,0.00,,,0.82,weatherlink.com 1.10,2013-09-14 03:58:00,